ASTRA 4A

Last updated on Sat Jun 14 2025 00:02:44 GMT+0000 (Coordinated Universal Time)

1 32299U 07057A 25164.40183500 .00000048 00000+0 00000+0 0 9993 2 32299 0.0121 356.5565 0003162 82.5945 332.2889 1.00273264 47945
UTC large
Height (km)
Speed (km/s)
/
Latitude / Longitude
Inclination (degrees)
Orbital Period (minutes)
Azimuth
Elevation
Range (km)
Doppler Factor

Next 0 passes for location: London (51.5072 / 0.1276)

Sorry there are no passes over London.